Wetbulb
56.42 54.58 52.99 54.55 55.68 55.70 55.43 55.20 54.58 56.28 58.25 56.48 55.88 54.99 55.50 57.11 57.71 56.33 56.18 55.77 56.14 56.20 57.66 58.47 58.76 60.80 60.85 61.24 60.94 60.76 60.76 61.46 60.45 58.93 57.83 57.49 57.21 58.97 59.76 60.21 60.91 61.17 60.28 60.14
54.62 52.57 55.00 57.64 56.85 55.89 55.43 54.67 54.46 56.10 57.86 57.01 55.13 52.62 53.96 55.69 56.82 56.31 55.31 56.13 56.46 58.46 59.05 59.19 59.81 60.19 60.47 60.37 60.47 60.59 60.68 60.93 60.16 58.36 58.21 58.08 57.87 58.31 58.94 58.90 59.33 59.62 59.02 59.21
52.90 53.26 55.71 55.67 55.09 53.37 53.33 52.69 53.69 53.15 55.83 56.99 54.62 52.26 51.70 54.54 56.25 56.30 57.56 58.32 59.16 58.67 57.72 58.64 59.06 59.06 59.93 59.68 60.15 60.32 60.84 60.77 59.90 59.35 57.60 57.22 57.64 57.34 56.49 56.83 56.77 57.99 58.79 58.85
54.03 55.21 53.72 53.40 52.23 53.33 50.87 53.24 54.13 54.44 53.26 49.44 56.08 46.20 53.82 53.72 52.57 53.59 56.06 57.24 57.79 58.68 58.67 57.27 57.59 58.29 58.98 59.25 60.21 60.68 60.85 60.38 58.98 58.97 57.44 57.14 55.11 53.84 55.21 55.73 56.24 57.15 58.16 58.43
53.27 54.09 53.69 52.74 51.78 53.78 52.29 55.31 54.19 54.66 52.98 51.07 51.96 48.92 52.86 55.62 51.33 52.05 55.06 55.31 56.80 57.56 57.45 56.66 57.09 57.82 58.51 59.19 59.54 60.11 59.38 58.46 58.31 58.45 58.08 56.39 55.58 55.31 55.40 55.44 56.29 56.69 57.69 57.39
55.48 56.83 55.22 53.87 53.89 55.52 57.23 54.56 54.15 54.90 52.21 45.55 50.17 48.84 48.85 52.62 53.78 54.35 54.83 54.95 56.20 55.67 56.16 56.46 57.25 57.96 58.21 58.90 58.95 57.90 57.03 56.97 57.63 57.45 57.28 56.77 55.79 55.38 54.43 55.04 54.38 54.37 54.84 56.13
53.67 53.32 55.11 55.84 53.62 55.72 54.57 52.59 45.89 44.34 44.01 43.65 51.06 47.58 50.00 53.00 54.61 54.51 54.22 54.15 55.02 55.76 53.16 54.11 56.62 57.32 57.72 56.75 56.15 54.64 56.03 55.84 56.76 56.47 56.38 56.00 56.03 55.79 55.21 54.88 54.03 54.64 53.81 54.96
50.36 48.28 52.40 54.54 53.20 51.78 51.92 51.34 45.91 38.61 40.46 43.11 50.22 45.42 46.69 53.06 55.02 56.31 55.99 54.41 53.43 51.11 52.87 53.00 56.79 56.62 56.29 55.63 54.42 53.61 55.40 55.01 55.51 55.50 55.64 56.00 56.16 54.30 54.64 54.86 54.59 54.32 54.78 55.78
51.92 48.99 53.09 53.09 54.50 54.17 51.71 49.08 51.37 46.86 47.81 43.91 47.37 49.20 50.99 51.71 51.51 52.94 52.81 53.31 50.26 51.50 53.70 54.07 55.82 55.20 50.81 53.98 54.09 54.92 54.67 54.54 54.66 54.97 54.34 54.49 53.94 54.89 54.34 54.96 55.17 54.37 55.41 55.37
53.87 48.97 51.80 52.50 54.93 54.52 52.48 52.95 46.42 47.53 39.28 37.35 43.83 45.23 43.92 48.21 48.84 50.54 51.54 49.29 51.33 54.47 52.69 54.21 53.79 52.86 51.84 53.72 54.36 53.89 53.61 52.60 53.20 53.76 53.61 54.04 53.22 53.01 52.06 52.03 52.36 53.21 54.38 55.23
55.84 52.97 50.86 52.87 51.53 49.93 49.88 48.61 49.47 48.77 46.06 41.41 40.39 42.79 50.55 50.59 52.25 51.66 52.16 53.39 53.49 53.79 52.82 51.86 49.34 50.88 53.65 54.02 53.09 52.28 53.07 51.78 53.23 53.06 53.52 52.71 51.39 51.36 51.90 51.66 51.23 52.93 53.87 54.30
55.34 53.81 49.14 48.93 52.58 54.12 53.08 50.76 50.81 46.30 43.40 47.53 45.56 42.66 53.56 53.28 53.51 53.43 52.52 53.05 53.22 52.44 51.52 50.84 51.96 52.76 52.57 52.56 51.62 51.91 52.45 52.59 53.08 52.64 50.82 50.06 52.12 51.64 50.87 49.92 49.71 49.67 49.78 51.61
55.41 51.05 45.41 46.60 49.88 52.77 50.34 50.99 51.40 50.04 50.41 44.33 42.11 43.21 53.30 53.26 52.79 53.32 52.48 51.58 51.55 51.33 51.15 51.00 51.84 51.28 50.53 50.70 50.69 50.74 51.54 52.19 51.90 49.87 49.47 50.89 49.73 48.19 49.14 49.30 49.34 49.49 48.24 50.45
57.81 51.61 47.15 44.06 46.23 50.26 47.57 48.25 50.19 49.75 45.83 44.84 43.68 44.92 48.41 50.29 50.79 51.47 51.31 51.33 50.14 48.21 49.65 50.48 50.11 49.30 48.40 49.56 48.96 49.26 49.79 48.83 48.96 50.95 50.21 49.98 48.83 47.98 47.55 49.90 49.03 49.33 49.92 47.50
55.98 48.87 50.50 50.31 50.08 49.89 48.52 47.90 48.09 47.13 47.40 43.81 45.17 45.44 49.02 50.10 50.66 51.13 51.16 48.59 48.44 47.74 49.06 48.63 47.90 47.64 46.81 47.66 48.53 49.32 49.23 50.13 51.13 49.76 50.41 48.54 48.19 48.20 48.78 48.64 47.86 48.43 49.16 49.96
55.78 49.71 51.15 47.79 49.47 48.70 46.70 48.07 47.92 47.46 47.62 47.39 47.10 44.79 51.40 51.40 51.77 49.76 48.74 48.31 46.58 47.83 47.91 47.55 47.47 46.44 46.74 47.44 47.57 49.13 50.05 49.23 50.18 49.63 49.40 48.64 48.50 48.75 50.21 50.79 51.12 50.95 50.03 51.35
53.40 52.40 48.50 45.06 48.28 47.51 45.17 47.99 48.28 48.34 49.36 48.26 45.07 48.84 51.62 50.05 49.59 49.20 48.55 47.58 47.48 47.64 47.43 48.21 46.45 46.98 47.49 48.09 49.28 49.05 48.89 50.53 49.88 50.65 51.27 49.51 49.72 47.83 48.19 49.23 48.47 49.48 49.27 51.69
53.55 51.52 51.17 45.62 47.06 39.22 48.50 53.33 51.39 48.73 49.80 50.69 50.01 50.07 50.72 50.67 50.25 49.97 50.20 48.77 47.76 48.54 47.87 48.50 47.33 47.26 49.30 49.19 50.58 49.08 50.23 49.60 49.79 50.38 50.65 50.10 50.92 48.49 48.38 48.51 48.24 48.27 48.88 48.03
56.09 53.13 48.02 44.13 44.94 45.35 48.04 50.30 49.10 47.90 47.21 50.68 49.30 50.01 50.07 50.24 50.07 48.04 49.79 49.55 49.25 49.07 49.37 48.58 48.83 49.05 49.15 50.37 49.09 49.43 49.64 49.76 49.61 49.47 49.50 50.08 51.06 50.58 48.57 50.28 50.58 49.77 50.97 50.49
54.55 54.70 49.49 47.02 40.72 38.52 47.69 51.88 53.88 52.48 43.23 50.44 50.54 49.73 49.55 49.18 44.92 46.70 49.69 49.53 49.72 49.83 49.80 49.16 49.30 49.65 49.30 49.30 50.50 49.88 49.96 49.71 48.86 49.64 50.13 51.49 51.91 50.49 49.18 51.98 52.06 51.15 52.82 51.97
50.33 50.93 45.82 45.03 44.48 46.43 52.31 53.29 53.82 43.21 44.93 51.59 50.98 50.10 49.73 47.91 48.31 49.81 49.94 50.00 49.93 48.96 49.87 50.17 49.42 48.74 48.56 49.47 50.09 49.38 50.59 49.85 50.32 51.62 51.85 51.85 52.04 52.24 53.56 53.92 53.09 52.34 49.51 49.38
48.12 47.05 45.88 46.73 43.91 40.54 54.02 53.12 47.74 51.53 52.96 51.76 50.86 50.16 49.38 49.51 49.38 49.23 49.55 48.84 47.76 48.29 49.63 49.59 48.70 48.17 49.46 50.16 50.05 48.93 49.58 50.91 51.35 52.18 51.89 51.58 52.93 53.62 54.37 54.66 53.64 55.04 54.57 53.30
48.83 50.62 47.84 48.40 48.38 53.89 55.11 54.52 55.22 53.87 51.58 51.56 50.79 50.66 50.37 49.08 48.30 48.76 48.52 47.93 47.66 48.96 49.79 49.44 50.95 49.28 49.78 50.36 50.48 49.60 50.83 52.40 52.71 52.34 52.42 53.48 54.39 54.75 55.11 55.24 54.47 54.90 55.19 53.94
53.10 54.91 51.53 51.84 53.23 53.53 53.98 54.78 54.59 54.37 52.90 52.52 51.95 50.71 50.40 48.93 48.80 48.62 49.13 48.63 49.83 48.90 49.67 50.12 50.89 48.77 49.33 50.92 51.26 51.72 52.44 53.63 52.81 53.24 53.97 54.63 54.59 54.75 55.71 55.17 55.06 52.32 50.87 52.08
53.44 54.83 50.73 51.07 53.80 53.98 53.61 54.19 53.79 53.25 52.91 51.81 51.21 50.64 49.77 49.65 49.42 49.64 49.26 49.44 48.96 50.55 50.20 50.51 50.24 49.79 50.13 51.28 52.27 53.36 53.96 54.54 53.55 53.69 53.79 53.34 54.94 55.58 55.51 55.34 53.38 52.29 48.78 46.30
54.96 53.49 51.37 49.51 54.58 53.77 53.90 54.96 54.24 52.68 51.70 51.00 50.09 49.39 50.20 50.52 50.28 50.07 50.14 50.68 48.91 50.45 48.36 51.18 51.73 51.44 50.84 50.48 52.89 53.99 54.85 54.29 53.57 53.14 54.47 54.07 53.99 55.01 55.31 54.21 51.75 39.74 40.77 39.53
MSLP
1006.86 1005.76 1005.77 1006.61 1006.98 1007.49 1008.33 1009.46 1011.12 1012.79 1013.92 1014.50 1015.60 1017.28 1018.47 1019.10 1019.46 1020.53 1021.42 1022.22 1022.96 1023.59 1024.03 1024.24 1024.38 1023.99 1023.89 1023.99 1023.83 1023.80 1023.71 1023.91 1023.41 1023.01 1022.72 1022.45 1022.11 1021.74 1021.43 1021.56 1021.80 1021.72 1021.41 1021.06
1006.49 1006.96 1007.88 1007.93 1008.01 1008.20 1008.70 1009.69 1011.26 1013.07 1014.01 1014.52 1015.78 1017.20 1018.75 1019.14 1019.58 1020.77 1021.57 1021.92 1022.45 1022.67 1022.96 1023.54 1023.66 1023.80 1023.73 1023.64 1023.73 1023.76 1023.87 1023.96 1023.75 1023.38 1023.28 1023.14 1022.68 1022.02 1021.85 1021.56 1021.85 1021.62 1021.68 1021.26
1006.21 1008.14 1008.67 1008.39 1008.39 1008.39 1009.02 1009.52 1011.09 1011.90 1013.80 1014.53 1015.70 1016.46 1018.27 1019.53 1020.31 1020.89 1021.39 1021.68 1021.73 1022.15 1022.60 1022.90 1023.22 1023.56 1023.46 1023.53 1023.64 1023.74 1023.85 1023.96 1024.00 1023.98 1023.16 1022.99 1022.33 1021.80 1021.47 1021.62 1021.28 1021.53 1021.41 1021.26
1007.71 1008.62 1008.59 1008.56 1008.80 1009.12 1008.63 1010.35 1011.06 1012.13 1012.54 1011.98 1014.15 1013.78 1015.43 1018.01 1019.88 1020.79 1021.05 1021.29 1021.50 1022.04 1022.69 1023.09 1022.92 1023.17 1023.36 1023.46 1023.48 1023.61 1023.84 1023.93 1023.79 1023.90 1023.51 1023.50 1022.66 1022.09 1022.18 1021.71 1021.53 1021.59 1021.21 1021.25
1008.29 1008.56 1008.63 1008.92 1009.80 1009.71 1010.25 1010.77 1010.96 1011.59 1011.65 1012.55 1013.08 1013.94 1014.24 1016.16 1018.69 1020.34 1021.02 1021.69 1022.12 1022.52 1022.63 1022.99 1023.10 1023.27 1023.32 1023.32 1023.49 1023.68 1023.93 1023.91 1023.93 1023.93 1023.80 1023.37 1022.93 1022.56 1022.09 1021.91 1021.79 1021.30 1020.89 1020.76
1008.81 1009.43 1009.70 1009.87 1010.42 1010.50 1010.94 1011.11 1011.18 1011.23 1011.08 1010.81 1011.97 1013.55 1014.50 1016.44 1017.87 1019.15 1021.02 1021.91 1022.37 1022.94 1023.28 1023.39 1023.16 1023.19 1023.09 1023.01 1023.32 1023.58 1023.81 1023.96 1023.94 1023.84 1023.63 1023.49 1023.40 1023.16 1022.63 1022.10 1021.60 1020.97 1020.68 1020.44
1009.30 1009.81 1010.29 1010.58 1009.98 1010.81 1010.93 1010.34 1009.85 1009.71 1009.66 1009.90 1012.35 1013.95 1017.07 1018.59 1019.40 1019.88 1020.96 1022.28 1023.11 1023.72 1024.44 1024.40 1023.02 1022.89 1023.14 1023.60 1023.81 1024.05 1023.74 1023.81 1023.73 1023.73 1023.66 1023.57 1023.44 1023.25 1022.72 1022.49 1021.94 1021.68 1020.75 1020.36
1009.19 1009.96 1010.73 1011.32 1011.39 1011.29 1011.02 1011.47 1010.74 1010.65 1010.40 1011.00 1012.45 1014.50 1019.01 1020.23 1020.70 1020.99 1021.93 1023.03 1023.77 1024.47 1024.74 1024.48 1023.45 1023.91 1023.80 1023.99 1024.41 1024.21 1023.84 1023.86 1023.82 1023.71 1023.88 1023.54 1023.53 1023.28 1022.90 1022.64 1022.28 1021.71 1021.57 1021.13
1010.06 1010.97 1012.07 1012.31 1012.16 1012.13 1011.43 1011.44 1012.57 1012.14 1011.38 1011.86 1012.73 1017.08 1019.56 1020.93 1021.59 1022.05 1022.73 1023.28 1024.14 1024.42 1024.45 1024.39 1024.25 1024.38 1024.92 1024.56 1024.65 1024.25 1024.14 1024.00 1024.03 1024.36 1024.25 1024.03 1024.00 1023.59 1023.23 1023.05 1022.72 1022.06 1021.84 1021.48
1011.43 1011.45 1012.60 1012.92 1012.80 1012.68 1012.98 1013.39 1012.65 1012.19 1012.28 1012.53 1013.08 1016.08 1019.32 1020.63 1021.63 1022.44 1022.74 1023.63 1023.95 1023.98 1024.57 1024.51 1024.87 1025.21 1025.22 1024.92 1024.30 1024.48 1024.55 1024.78 1024.62 1024.60 1024.50 1024.24 1024.21 1024.14 1024.02 1023.70 1023.13 1022.61 1022.05 1021.57
1012.26 1012.29 1013.01 1013.39 1013.81 1013.89 1013.52 1013.42 1013.94 1014.38 1014.34 1014.00 1014.51 1017.97 1020.09 1020.72 1021.31 1021.96 1022.45 1023.04 1023.47 1024.20 1024.32 1024.89 1025.44 1025.37 1024.75 1024.53 1024.43 1024.81 1025.20 1025.34 1024.84 1024.86 1024.78 1024.66 1024.67 1024.30 1023.84 1023.63 1023.44 1022.88 1022.34 1021.89
1013.95 1013.65 1013.29 1014.16 1015.47 1015.60 1015.52 1015.44 1015.31 1014.63 1015.16 1015.89 1016.33 1019.10 1020.18 1020.86 1021.59 1022.06 1022.67 1023.38 1024.01 1024.40 1024.88 1025.28 1024.90 1024.69 1024.83 1024.87 1025.16 1025.52 1025.68 1025.37 1025.17 1025.32 1025.43 1025.20 1024.60 1024.33 1024.05 1023.98 1023.88 1023.74 1023.34 1022.67
1014.83 1014.74 1014.25 1015.03 1016.03 1015.83 1016.18 1016.45 1016.44 1016.61 1016.43 1016.71 1016.82 1018.74 1020.47 1021.31 1021.70 1022.39 1022.76 1023.89 1024.36 1024.80 1025.14 1025.37 1025.18 1025.20 1025.72 1026.10 1026.27 1026.08 1025.87 1025.74 1025.72 1025.85 1025.50 1025.14 1025.23 1025.28 1024.76 1024.39 1024.14 1023.82 1023.62 1023.17
1015.71 1015.72 1015.53 1015.33 1016.22 1016.89 1016.90 1017.24 1017.11 1016.94 1016.70 1017.25 1018.34 1018.95 1019.95 1021.23 1021.85 1022.68 1023.63 1024.09 1024.98 1025.59 1025.58 1025.65 1025.79 1026.15 1026.66 1026.84 1026.91 1026.79 1026.76 1026.79 1026.45 1025.73 1025.50 1025.46 1025.70 1025.67 1025.34 1024.68 1024.45 1023.94 1023.45 1023.54
1015.92 1016.17 1016.55 1017.02 1017.43 1017.60 1017.78 1017.89 1018.02 1017.97 1018.34 1018.39 1019.04 1019.46 1020.57 1021.74 1022.34 1023.14 1023.95 1025.00 1025.38 1025.82 1025.93 1026.16 1026.57 1027.02 1027.47 1027.65 1027.50 1027.36 1027.17 1026.72 1026.09 1025.87 1025.72 1026.06 1026.22 1025.91 1025.44 1025.13 1024.79 1024.36 1023.86 1023.33
1016.68 1016.81 1017.08 1017.54 1018.05 1018.13 1018.17 1018.49 1018.51 1018.78 1019.13 1019.00 1019.47 1020.53 1021.56 1022.52 1023.11 1023.80 1024.77 1025.20 1025.79 1025.99 1026.49 1026.84 1027.21 1027.92 1028.11 1028.05 1027.98 1027.53 1027.06 1026.86 1026.45 1026.33 1026.17 1026.41 1026.36 1025.86 1025.33 1024.79 1024.48 1024.22 1024.01 1023.41
1016.59 1017.00 1017.10 1017.21 1018.27 1018.40 1018.13 1018.83 1018.87 1019.06 1019.37 1020.23 1020.11 1021.14 1022.07 1022.74 1023.60 1024.37 1025.11 1025.72 1026.09 1026.58 1027.09 1027.39 1028.16 1028.55 1028.56 1028.29 1028.14 1027.61 1027.36 1027.06 1026.96 1026.53 1026.22 1026.34 1026.13 1026.22 1025.89 1025.52 1025.21 1024.82 1024.46 1023.82
1016.91 1017.19 1017.35 1017.55 1018.26 1018.04 1019.09 1019.55 1019.75 1019.78 1019.79 1020.74 1021.12 1021.77 1022.46 1023.07 1024.21 1024.88 1025.45 1025.95 1026.60 1027.13 1027.74 1028.07 1028.80 1028.93 1028.64 1028.51 1027.96 1027.98 1027.70 1027.59 1027.48 1027.04 1026.73 1026.48 1026.24 1026.33 1026.15 1025.86 1025.58 1025.30 1024.97 1024.69
1017.18 1017.21 1017.64 1017.96 1018.22 1019.01 1019.34 1019.84 1020.07 1020.20 1020.43 1021.57 1021.77 1022.53 1023.24 1023.96 1024.47 1025.37 1026.24 1026.89 1027.30 1027.98 1028.39 1029.01 1029.26 1029.14 1028.89 1028.47 1028.61 1028.43 1028.18 1027.96 1027.68 1027.39 1027.05 1026.77 1026.43 1026.06 1026.27 1025.72 1025.54 1025.47 1025.13 1024.83
1017.59 1017.63 1017.69 1018.13 1018.34 1018.53 1019.72 1020.39 1020.69 1020.61 1021.02 1022.21 1022.57 1022.81 1023.46 1024.16 1023.60 1025.21 1026.54 1027.28 1027.92 1028.37 1029.10 1029.38 1029.29 1029.08 1028.93 1028.99 1028.98 1028.61 1028.19 1028.04 1027.90 1027.66 1027.38 1026.93 1026.68 1026.46 1026.33 1025.78 1025.43 1025.39 1025.00 1024.73
1017.17 1017.57 1017.94 1018.53 1018.83 1019.51 1020.46 1020.85 1020.87 1020.75 1022.42 1022.83 1023.21 1023.51 1023.94 1024.18 1025.34 1026.38 1027.13 1027.79 1028.72 1029.26 1029.26 1029.39 1029.39 1029.35 1029.53 1029.50 1029.20 1028.78 1028.33 1028.24 1028.10 1027.72 1027.42 1027.04 1026.82 1026.52 1026.20 1025.70 1025.56 1025.28 1025.29 1025.04
1017.56 1017.84 1018.29 1018.87 1019.18 1020.13 1021.34 1021.01 1021.38 1022.47 1023.06 1023.45 1023.84 1024.16 1024.72 1025.52 1026.26 1026.89 1027.51 1028.52 1029.22 1029.40 1029.29 1029.42 1029.45 1029.55 1029.63 1029.44 1029.13 1028.88 1028.52 1028.45 1028.10 1027.69 1027.41 1027.15 1026.79 1026.35 1025.85 1025.67 1025.46 1025.14 1024.89 1024.43
1018.39 1019.38 1019.36 1019.98 1020.39 1021.59 1021.95 1022.16 1022.88 1023.08 1023.38 1023.97 1024.40 1025.00 1025.49 1026.02 1026.64 1027.21 1028.29 1029.04 1029.47 1029.55 1029.49 1029.63 1029.24 1029.27 1029.49 1029.48 1029.25 1028.94 1028.69 1028.28 1027.79 1027.56 1027.32 1026.97 1026.61 1026.28 1025.93 1025.74 1025.54 1024.94 1024.71 1024.40
1019.54 1020.09 1019.75 1020.38 1021.23 1021.59 1022.28 1022.92 1023.35 1023.62 1024.16 1024.66 1025.15 1025.63 1025.88 1026.38 1026.98 1027.90 1028.53 1029.20 1029.42 1029.67 1029.37 1029.71 1029.26 1029.32 1029.33 1029.39 1029.16 1028.95 1028.50 1027.99 1027.72 1027.32 1027.08 1026.90 1026.60 1026.41 1026.16 1026.02 1025.89 1025.70 1025.77 1025.40
1020.29 1020.32 1020.47 1020.44 1021.11 1021.84 1022.47 1022.97 1023.70 1024.30 1024.84 1025.26 1025.66 1026.05 1026.43 1026.81 1027.35 1027.98 1028.80 1029.17 1029.72 1029.71 1029.74 1029.82 1029.55 1029.49 1029.47 1029.40 1028.97 1028.77 1028.34 1027.96 1027.70 1027.46 1027.17 1026.97 1026.53 1026.28 1026.21 1026.50 1027.07 1026.84 1027.59 1027.54
1021.39 1021.53 1020.81 1021.11 1021.90 1021.99 1022.57 1023.42 1024.09 1024.59 1025.10 1025.59 1026.10 1026.58 1026.99 1027.18 1027.69 1028.49 1028.82 1029.28 1029.77 1029.52 1030.15 1029.83 1029.61 1029.56 1029.59 1029.66 1028.94 1028.80 1028.59 1028.41 1028.06 1027.58 1027.00 1027.07 1026.64 1026.01 1025.87 1026.27 1027.34 1028.51 1028.21 1028.28
Wind_Speed
5 8 10 12 10 10 8 10 13 9 6 4 8 10 8 6 6 8 7 7 8 10 9 8 8 7 8 9 9 11 11 10 8 8 9 8 9 6 6 4 6 6 7 7
7 11 7 8 7 8 8 10 9 6 4 4 7 7 7 5 8 8 6 8 6 6 10 8 8 7 8 9 10 10 10 9 8 9 7 7 7 7 6 5 7 6 9 8
10 12 6 6 6 3 3 7 7 3 8 4 10 12 10 8 7 6 5 5 6 6 7 7 8 7 9 9 9 9 9 10 9 10 8 8 8 7 6 8 7 9 7 8
10 6 5 4 3 7 3 3 5 11 11 4 13 5 16 15 10 8 7 6 5 6 7 6 6 7 8 8 8 9 9 9 9 10 10 10 8 9 7 7 8 10 9 8
9 5 2 7 8 5 7 1 5 10 12 6 15 8 13 12 11 10 7 5 5 4 4 8 8 8 6 7 8 8 9 9 9 10 10 10 11 10 9 9 11 9 6 5
10 4 8 4 5 8 7 3 6 9 9 13 9 5 10 3 5 3 10 7 7 5 5 7 5 4 5 6 8 8 9 9 9 11 10 10 12 11 10 10 10 9 9 5
8 6 6 8 5 8 6 8 11 9 7 6 6 7 13 16 12 9 9 9 8 8 9 10 8 9 8 9 10 9 10 11 12 12 11 12 12 12 12 12 10 12 9 8
5 9 5 8 8 8 4 9 9 14 12 12 6 4 7 9 7 8 11 10 9 5 6 9 8 9 11 10 11 11 12 14 13 12 12 12 12 9 9 9 9 9 9 9
2 6 5 7 9 10 9 6 7 10 12 10 4 13 9 5 4 5 5 5 3 3 5 7 8 9 8 10 9 11 12 13 13 14 11 11 9 11 11 13 11 10 9 8
3 3 1 3 6 8 9 6 8 5 8 9 3 7 7 10 4 3 5 3 4 1 3 5 8 8 7 7 10 9 12 14 15 13 10 10 12 12 11 11 12 12 11 11
5 5 7 6 9 11 9 7 5 5 6 7 8 6 4 7 5 2 3 1 5 2 5 7 8 6 8 11 11 12 13 11 11 11 12 12 11 9 9 9 11 11 12 8
6 5 3 7 6 5 8 7 7 7 3 4 6 5 5 5 6 4 5 7 6 6 8 3 7 10 12 13 13 11 9 11 10 10 11 9 12 13 11 10 8 10 12 8
3 4 6 11 8 6 6 8 5 3 5 7 9 6 6 3 6 7 6 7 7 6 10 10 11 12 14 13 12 11 10 10 11 10 8 10 11 11 14 10 9 7 6 9
2 3 5 7 8 3 4 6 8 7 6 6 6 7 5 5 6 4 6 5 9 5 7 10 11 12 11 12 12 13 12 10 8 8 10 10 11 9 8 9 10 10 5 4
4 5 4 7 5 4 4 5 8 8 7 6 9 7 9 5 5 6 5 6 4 7 10 11 11 11 11 11 10 10 8 7 9 9 9 10 8 7 6 7 7 8 8 5
2 4 2 5 3 2 3 4 3 5 7 6 5 5 4 4 3 5 3 4 6 8 10 11 11 12 10 9 9 7 8 9 8 11 10 7 10 8 11 7 5 4 4 6
1 4 5 5 2 4 6 7 6 6 4 7 10 8 2 2 2 2 3 3 7 9 9 9 13 9 8 9 8 8 8 8 11 9 11 9 6 8 9 11 11 11 8 8
6 1 3 4 3 1 7 4 6 8 5 6 2 4 4 4 4 3 4 6 7 8 7 10 8 7 7 6 7 7 10 9 9 10 10 9 10 8 7 9 9 8 7 7
4 2 3 4 1 3 5 2 7 10 5 6 7 2 2 3 5 6 6 7 7 7 7 7 6 6 6 7 8 7 7 8 8 9 9 10 11 10 9 11 10 7 6 5
6 2 3 1 2 2 7 3 6 7 5 5 6 4 1 3 9 10 6 4 7 5 7 6 6 4 5 9 6 7 7 8 8 9 9 9 8 8 7 6 7 5 5 6
2 2 5 3 1 5 6 5 5 6 7 4 6 5 1 4 7 8 4 7 6 5 4 4 5 7 6 5 6 7 8 9 8 8 6 7 7 6 6 7 5 3 4 4
5 5 4 2 2 4 6 5 7 6 3 3 4 4 4 6 5 5 6 7 5 2 4 5 4 3 3 5 6 8 8 7 6 5 6 6 6 4 4 6 5 6 4 3
2 6 5 7 6 4 4 6 6 4 5 4 4 5 6 5 4 4 7 4 3 1 4 4 2 5 4 5 6 7 7 6 5 7 7 8 7 6 6 9 8 9 9 8
4 1 2 5 5 4 4 6 5 5 6 6 7 5 4 6 4 6 5 3 3 4 5 3 3 6 5 6 5 5 5 5 7 7 7 7 7 5 6 5 6 9 8 7
6 2 3 4 6 2 5 3 6 7 7 7 6 5 6 5 6 4 4 2 5 1 4 3 5 4 5 5 6 6 6 7 7 6 7 5 5 6 7 10 9 9 10 8
10 9 6 8 7 6 6 7 7 7 6 6 6 7 5 4 6 5 5 3 5 5 1 3 3 2 7 4 5 7 7 6 4 5 4 6 2 5 5 5 8 7 8 5
Wind_Direction
201 230 59 46 41 63 85 103 111 111 103 95 128 145 151 155 148 116 105 110 126 113 131 117 127 118 111 99 76 53 45 32 13 11 355 350 345 337 331 345 346 327 339 322
180 76 80 100 100 106 107 121 112 114 178 225 155 137 144 182 123 127 133 125 113 114 103 86 79 73 72 67 53 42 34 28 17 6 355 346 341 338 328 360 322 332 330 322
89 114 131 127 122 140 56 18 167 56 159 161 177 179 178 158 145 148 125 174 121 105 109 91 82 58 44 43 35 30 22 19 25 359 357 357 335 341 351 345 333 357 315 313
91 126 160 191 70 317 69 4 188 165 202 325 204 335 186 163 175 194 190 169 142 110 78 111 74 45 34 24 21 17 17 14 11 3 349 348 334 338 338 322 1 309 328 317
98 133 100 65 24 326 52 205 215 199 243 259 182 253 97 160 184 187 205 151 120 102 52 58 40 23 26 18 12 21 11 3 2 348 344 333 348 333 333 333 336 310 317 308
104 96 41 48 56 29 129 176 231 219 252 248 94 281 76 77 296 132 150 118 106 71 64 39 22 358 9 8 15 6 360 351 345 339 338 342 334 330 331 340 312 340 319 358
134 84 97 8 267 153 239 298 308 284 276 340 81 272 40 44 38 27 128 113 88 65 29 311 315 357 11 15 9 347 353 338 342 339 341 336 332 322 322 335 334 324 330 335
239 161 19 14 22 331 342 328 323 312 321 327 148 358 68 34 39 54 75 101 97 102 249 273 333 353 352 0 3 330 340 338 341 343 335 331 336 337 331 334 333 331 334 326
230 129 111 47 33 345 356 333 341 284 264 257 66 107 108 110 68 64 103 118 133 212 266 309 336 14 360 353 317 343 345 341 355 341 337 344 342 336 345 342 334 336 333 330
72 197 336 55 282 91 11 4 305 284 296 314 98 67 40 11 86 147 148 138 228 235 321 343 16 19 339 312 338 354 356 5 354 354 354 357 359 359 349 333 324 325 329 336
335 301 109 226 24 7 347 2 330 283 317 317 331 75 39 6 22 106 105 158 44 39 28 33 38 298 333 339 349 20 10 340 349 357 1 356 355 323 324 341 350 341 333 348
30 350 342 50 81 30 50 13 347 319 41 350 279 77 33 24 46 50 57 75 61 44 46 29 336 348 352 347 11 5 343 347 355 3 5 343 356 3 358 356 3 13 5 351
8 64 293 157 180 130 37 19 2 311 266 27 323 81 50 49 46 38 61 84 71 45 23 3 351 358 14 10 358 351 352 353 6 8 326 18 1 17 344 12 1 331 30 2
27 49 352 17 44 344 66 31 23 352 347 350 49 340 93 43 17 60 76 65 54 35 358 12 357 14 19 3 11 7 19 17 353 327 22 10 15 349 343 1 6 358 48 2
22 83 80 76 76 66 75 35 30 41 19 8 7 338 48 25 38 68 75 69 30 14 7 8 8 20 24 10 5 7 9 354 358 25 12 28 353 347 348 350 20 4 10 348
27 108 141 101 103 94 81 61 15 30 9 351 330 82 62 96 96 72 85 38 23 11 9 7 17 31 12 1 354 5 5 9 8 21 13 32 3 6 358 17 9 38 36 24
60 135 249 83 156 265 193 27 1 342 9 349 347 17 104 171 56 98 66 27 13 16 17 5 40 19 358 8 347 5 9 22 25 0 11 24 35 18 10 16 17 16 14 24
131 138 321 71 237 237 68 31 354 328 36 7 327 9 5 21 94 102 40 21 20 22 16 33 24 10 360 12 10 25 22 26 16 17 13 18 25 24 23 19 20 13 16 20
45 306 99 322 333 85 150 96 351 340 23 33 1 15 46 122 187 112 73 45 32 39 38 31 14 347 342 26 36 23 24 28 25 20 15 11 5 35 13 14 16 13 14 31
107 106 26 331 305 19 59 41 343 300 161 39 348 354 304 233 277 101 84 51 62 51 51 22 28 6 42 48 28 14 9 21 10 359 350 3 14 15 8 24 36 26 37 46
141 17 5 67 15 114 50 350 306 279 36 30 359 8 44 320 36 84 102 86 65 52 39 29 49 55 41 21 357 360 2 15 358 353 350 1 15 15 24 48 42 56 82 54
359 330 42 256 292 99 11 264 339 60 72 41 31 42 80 95 115 108 87 80 80 34 30 57 78 86 39 360 355 355 2 357 352 7 24 34 44 51 75 66 35 49 28 62
128 25 8 3 34 58 38 67 84 62 95 62 81 81 107 115 120 87 100 102 112 8 351 78 357 114 56 8 359 351 7 20 46 66 80 77 73 74 48 37 29 39 31 28
105 44 27 248 84 65 107 113 108 78 87 86 101 106 114 109 110 105 117 141 190 76 68 47 14 69 52 21 4 25 41 75 96 104 91 90 72 60 53 53 15 54 27 32
22 244 13 144 92 168 136 127 122 111 106 105 95 98 107 110 91 99 108 120 87 270 81 38 55 50 45 6 48 70 74 93 99 82 90 70 69 51 63 61 26 42 44 17
353 9 349 40 18 343 57 138 138 133 119 102 114 124 106 100 99 104 94 86 135 110 133 66 72 86 66 48 95 87 71 68 58 67 62 69 29 74 85 90 109 85 100 87